Overview Statistics Trail Chart Weather Telemetry Raw packets
 

This is the latest recevied weather packets stored in our database for station/object SM0UQT-10. If no packets are shown the sender has not sent any weather packets the latest 10 day(s).

<< 3 4 5 6 7 8 9 >>
Time Temp. Humidity Pressure Rain* Wind** Luminosity Snow
1788529126 17.78° C 58% 987.1 hPa - - - -
1788528226 18.33° C 58% 987.2 hPa - - - -
1788527358 18.33° C 59% 987.2 hPa - - - -
1788527326 18.33° C 59% 987.2 hPa - - - -
1788526425 18.33° C 59% 987.4 hPa - - - -
1788525525 18.33° C 59% 987.5 hPa - - - -
1788524625 18.89° C 59% 987.7 hPa - - - -
1788523725 18.33° C 59% 987.9 hPa - - - -
1788522859 17.78° C 59% 988.1 hPa - - - -
1788522825 17.78° C 59% 988.1 hPa - - - -
1788521925 17.22° C 59% 988.2 hPa - - - -
1788521025 17.22° C 59% 988.4 hPa - - - -
1788520125 16.67° C 59% 988.5 hPa - - - -
1788519225 17.22° C 60% 988.5 hPa - - - -
1788518325 17.22° C 60% 988.8 hPa - - - -
1788517425 17.22° C 60% 988.8 hPa - - - -
1788516525 17.78° C 61% 988.8 hPa - - - -
1788515624 17.78° C 62% 988.8 hPa - - - -
1788514724 17.22° C 62% 988.9 hPa - - - -
1788513824 17.22° C 62% 989.1 hPa - - - -
1788512924 16.67° C 62% 989.1 hPa - - - -
1788512024 16.11° C 63% 989.2 hPa - - - -
1788511124 16.11° C 63% 989.3 hPa - - - -
1788510224 16.67° C 65% 989.3 hPa - - - -
1788509324 15.56° C 64% 989.3 hPa - - - -

* Rain since midnight (hover to see other rain measurements)
** Current wind speed in m/s (hover to see current wind gust speed)